• In Spain
  • List of Countries
  • For 7 days
  • Water Temperature
  • Satellite Maps
  • Weather Map
  • Weather Widgets
  • user-avatar
    Login

    Hourly Weather Biryulevka

    Today, 21 April, Saturday

    Time Temperature Precipitation Wind Pressure Humidity
    00:00 +8°C° 0 mm 2 mps 743 mmHg 83%
    01:00 +8°C° 0 mm 2 mps 742 mmHg 84%
    02:00 +7°C° 0 mm 2 mps 742 mmHg 86%
    03:00 +7°C° 0 mm 2 mps 741 mmHg 86%
    04:00 +5°C° 0 mm 3 mps 741 mmHg 85%
    05:00 +5°C° 0 mm 3 mps 740 mmHg 85%
    06:00 +5°C° 0 mm 4 mps 740 mmHg 84%
    07:00 +7°C° 0 mm 5 mps 739 mmHg 79%
    08:00 +8°C° 0 mm 6 mps 738 mmHg 74%
    09:00 +10°C° 0 mm 7 mps 738 mmHg 68%
    10:00 +12°C° 0 mm 8 mps 737 mmHg 63%
    11:00 +13°C° 0 mm 8 mps 736 mmHg 58%
    12:00 +16°C° 0 mm 9 mps 735 mmHg 54%
    13:00 +17°C° 0 mm 9 mps 734 mmHg 52%
    14:00 +17°C° 0 mm 10 mps 733 mmHg 50%
    15:00 +18°C° 0 mm 10 mps 732 mmHg 48%
    16:00 +18°C° 0 mm 10 mps 731 mmHg 50%
    17:00 +18°C° 0 mm 9 mps 730 mmHg 52%
    18:00 +17°C° 0 mm 9 mps 729 mmHg 55%
    19:00 +16°C° 0.8 mm 9 mps 728 mmHg 59%
    20:00 +15°C° 0.8 mm 9 mps 728 mmHg 63%
    21:00 +13°C° 0.8 mm 9 mps 727 mmHg 67%
    22:00 +11°C° 0.1 mm 9 mps 728 mmHg 67%
    23:00 +10°C° 0.1 mm 8 mps 728 mmHg 67%

    Tomorrow, 22 April, Sunday

    Time Temperature Precipitation Wind Pressure Humidity
    00:00 +7°C° 0.1 mm 8 mps 728 mmHg 67%
    01:00 +6°C° 0 mm 9 mps 729 mmHg 68%
    02:00 +5°C° 0 mm 9 mps 729 mmHg 68%
    03:00 +3°C° 0 mm 9 mps 729 mmHg 69%
    04:00 +3°C° 0 mm 9 mps 730 mmHg 69%
    05:00 +3°C° 0 mm 9 mps 730 mmHg 69%
    06:00 +3°C° 0 mm 9 mps 730 mmHg 69%
    07:00 +3°C° 0 mm 9 mps 730 mmHg 67%
    08:00 +5°C° 0 mm 10 mps 731 mmHg 64%
    09:00 +5°C° 0 mm 10 mps 731 mmHg 62%
    10:00 +5°C° 0.1 mm 9 mps 732 mmHg 61%
    11:00 +5°C° 0.1 mm 9 mps 732 mmHg 59%
    12:00 +5°C° 0.1 mm 8 mps 733 mmHg 58%
    13:00 +6°C° 0 mm 8 mps 733 mmHg 57%
    14:00 +6°C° 0 mm 8 mps 733 mmHg 56%
    15:00 +6°C° 0 mm 8 mps 734 mmHg 55%
    16:00 +6°C° 0 mm 7 mps 734 mmHg 56%
    17:00 +5°C° 0 mm 7 mps 734 mmHg 56%
    18:00 +5°C° 0 mm 6 mps 735 mmHg 57%
    19:00 +5°C° 0 mm 5 mps 735 mmHg 59%
    20:00 +5°C° 0 mm 5 mps 736 mmHg 62%
    21:00 +4°C° 0 mm 4 mps 737 mmHg 64%
    22:00 +3°C° 0 mm 4 mps 737 mmHg 64%
    23:00 +3°C° 0 mm 4 mps 737 mmHg 65%

    Day after tomorrow, 23 April, Monday

    Time Temperature Precipitation Wind Pressure Humidity
    00:00 +1°C° 0 mm 4 mps 738 mmHg 66%
    01:00 +1°C° 0 mm 4 mps 738 mmHg 66%
    02:00 0°C° 0 mm 4 mps 738 mmHg 67%
    03:00 -1°C° 0 mm 4 mps 739 mmHg 68%
    04:00 -1°C° 0 mm 4 mps 739 mmHg 68%
    05:00 -2°C° 0 mm 4 mps 740 mmHg 69%
    06:00 -2°C° 0 mm 5 mps 740 mmHg 70%
    07:00 -1°C° 0 mm 5 mps 740 mmHg 63%
    08:00 0°C° 0 mm 5 mps 741 mmHg 56%
    09:00 -1°C° 0 mm 6 mps 741 mmHg 49%
    10:00 +1°C° 0 mm 6 mps 742 mmHg 47%
    11:00 +2°C° 0 mm 6 mps 742 mmHg 45%
    12:00 +3°C° 0 mm 6 mps 742 mmHg 43%
    13:00 +3°C° 0 mm 6 mps 742 mmHg 42%
    14:00 +4°C° 0 mm 6 mps 742 mmHg 42%
    15:00 +5°C° 0 mm 6 mps 742 mmHg 41%
    16:00 +6°C° 0 mm 5 mps 742 mmHg 41%
    17:00 +5°C° 0 mm 5 mps 742 mmHg 42%
    18:00 +5°C° 0 mm 5 mps 742 mmHg 43%
    19:00 +4°C° 0 mm 4 mps 743 mmHg 47%
    20:00 +3°C° 0 mm 3 mps 743 mmHg 52%
    21:00 +3°C° 0 mm 2 mps 744 mmHg 56%
    22:00 +3°C° 0 mm 2 mps 744 mmHg 58%
    23:00 +2°C° 0 mm 2 mps 744 mmHg 60%

    24 April, Tuesday

    Time Temperature Precipitation Wind Pressure Humidity
    00:00 +2°C° 0 mm 2 mps 744 mmHg 62%
    01:00 +2°C° 0 mm 1 mps 744 mmHg 63%
    02:00 +2°C° 0 mm 1 mps 745 mmHg 64%
    03:00 +2°C° 0 mm 1 mps 745 mmHg 65%
    04:00 +2°C° 0 mm 1 mps 745 mmHg 65%
    05:00 +2°C° 0 mm 1 mps 745 mmHg 65%
    06:00 +2°C° 0 mm 1 mps 745 mmHg 64%
    07:00 +3°C° 0 mm 1 mps 745 mmHg 58%
    08:00 +4°C° 0 mm 2 mps 745 mmHg 53%
    09:00 +6°C° 0 mm 2 mps 745 mmHg 47%
    10:00 +7°C° 0 mm 2 mps 745 mmHg 43%
    11:00 +8°C° 0 mm 2 mps 745 mmHg 40%
    12:00 +9°C° 0 mm 2 mps 745 mmHg 37%
    13:00 +9°C° 0 mm 3 mps 744 mmHg 36%
    14:00 +10°C° 0 mm 3 mps 744 mmHg 35%
    15:00 +11°C° 0 mm 3 mps 744 mmHg 34%
    16:00 +11°C° 0 mm 3 mps 743 mmHg 37%
    17:00 +10°C° 0 mm 3 mps 743 mmHg 39%
    18:00 +10°C° 0 mm 3 mps 743 mmHg 42%
    19:00 +9°C° 0 mm 2 mps 743 mmHg 45%
    20:00 +8°C° 0 mm 2 mps 743 mmHg 49%
    21:00 +8°C° 0 mm 2 mps 743 mmHg 52%
    22:00 +7°C° 0 mm 2 mps 743 mmHg 56%
    23:00 +7°C° 0 mm 2 mps 742 mmHg 59%

    25 April, Wednesday

    Time Temperature Precipitation Wind Pressure Humidity
    00:00 +7°C° 0 mm 2 mps 742 mmHg 63%
    01:00 +6°C° 0 mm 2 mps 742 mmHg 67%
    02:00 +6°C° 0 mm 2 mps 742 mmHg 72%
    03:00 +6°C° 0 mm 2 mps 742 mmHg 77%
    04:00 +5°C° 0 mm 3 mps 741 mmHg 78%
    05:00 +5°C° 0 mm 3 mps 741 mmHg 78%
    06:00 +5°C° 0 mm 3 mps 741 mmHg 79%
    07:00 +5°C° 0.1 mm 4 mps 741 mmHg 78%
    08:00 +6°C° 0.1 mm 5 mps 741 mmHg 76%
    09:00 +6°C° 0.1 mm 5 mps 741 mmHg 75%
    10:00 +7°C° 0.1 mm 6 mps 740 mmHg 74%
    11:00 +8°C° 0.1 mm 6 mps 740 mmHg 72%
    12:00 +9°C° 0.1 mm 6 mps 740 mmHg 71%
    13:00 +9°C° 0.6 mm 6 mps 739 mmHg 74%
    14:00 +9°C° 0.6 mm 6 mps 739 mmHg 78%
    15:00 +9°C° 0.6 mm 6 mps 738 mmHg 81%
    16:00 +9°C° 1.2 mm 6 mps 738 mmHg 82%
    17:00 +9°C° 1.2 mm 6 mps 737 mmHg 83%
    18:00 +9°C° 1.2 mm 6 mps 737 mmHg 85%
    19:00 +8°C° 0.1 mm 5 mps 737 mmHg 84%
    20:00 +8°C° 0.1 mm 5 mps 737 mmHg 83%
    21:00 +7°C° 0.1 mm 4 mps 738 mmHg 83%
    22:00 +6°C° 0 mm 4 mps 738 mmHg 83%
    23:00 +6°C° 0 mm 5 mps 738 mmHg 82%

    26 April, Thursday

    Time Temperature Precipitation Wind Pressure Humidity
    00:00 +5°C° 0 mm 5 mps 739 mmHg 82%
    01:00 +5°C° 0 mm 5 mps 739 mmHg 83%
    02:00 +5°C° 0 mm 4 mps 739 mmHg 84%
    03:00 +4°C° 0 mm 4 mps 740 mmHg 85%
    04:00 +4°C° 0 mm 4 mps 740 mmHg 86%
    05:00 +4°C° 0 mm 4 mps 740 mmHg 87%
    06:00 +4°C° 0 mm 4 mps 741 mmHg 88%
    07:00 +5°C° 0 mm 5 mps 741 mmHg 81%
    08:00 +7°C° 0 mm 5 mps 741 mmHg 75%
    09:00 +9°C° 0 mm 5 mps 741 mmHg 68%
    10:00 +10°C° 0 mm 5 mps 741 mmHg 62%
    11:00 +12°C° 0 mm 5 mps 741 mmHg 57%
    12:00 +13°C° 0 mm 5 mps 741 mmHg 51%
    13:00 +13°C° 0 mm 4 mps 741 mmHg 52%
    14:00 +13°C° 0 mm 3 mps 740 mmHg 53%
    15:00 +14°C° 0 mm 2 mps 740 mmHg 54%
    16:00 +13°C° 0.5 mm 3 mps 740 mmHg 60%
    17:00 +13°C° 0.5 mm 3 mps 739 mmHg 67%
    18:00 +12°C° 0.5 mm 3 mps 739 mmHg 73%
    19:00 +12°C° 0.6 mm 3 mps 738 mmHg 78%
    20:00 +12°C° 0.6 mm 3 mps 738 mmHg 84%
    21:00 +11°C° 0.6 mm 3 mps 738 mmHg 89%
    22:00 +11°C° 0.1 mm 3 mps 738 mmHg 90%
    23:00 +11°C° 0.1 mm 3 mps 738 mmHg 92%
    Show more